Time,TemperatureF,DewpointF,PressureIn,WindDirection,WindDirectionDegrees,WindSpeedMPH,WindSpeedGustMPH,Humidity,HourlyPrecipIn,Conditions,Clouds,dailyrainin,SoftwareType,DateUTC
2013-02-25 00:00:00,32.7,19.6,30.14,West,277,1.0,6.0,58,0.00,,---,0.00,VWS V14.01,2013-02-25 05:00:00,
2013-02-25 00:05:00,32.5,19.4,30.14,North,351,0.0,3.0,58,0.00,,---,0.00,VWS V14.01,2013-02-25 05:05:00,
2013-02-25 00:10:00,32.4,19.3,30.15,NNE,25,0.0,3.0,58,0.00,,---,0.00,VWS V14.01,2013-02-25 05:10:00,
2013-02-25 00:15:00,32.4,19.3,30.15,North,356,1.0,3.0,58,0.00,,---,0.00,VWS V14.01,2013-02-25 05:15:00,
2013-02-25 00:20:00,32.4,19.3,30.15,North,359,2.0,4.0,58,0.00,,---,0.00,VWS V14.01,2013-02-25 05:20:00,
2013-02-25 00:25:00,32.3,19.6,30.15,North,351,0.0,4.0,59,0.00,,---,0.00,VWS V14.01,2013-02-25 05:25:00,
2013-02-25 00:30:00,32.2,19.5,30.15,WNW,290,1.0,4.0,59,0.00,,---,0.00,VWS V14.01,2013-02-25 05:30:00,
2013-02-25 00:35:00,32.1,19.4,30.15,SW,215,1.0,2.0,59,0.00,,---,0.00,VWS V14.01,2013-02-25 05:35:00,
2013-02-25 00:40:00,32.1,19.4,30.15,WNW,288,1.0,5.0,59,0.00,,---,0.00,VWS V14.01,2013-02-25 05:40:00,
2013-02-25 00:45:00,32.1,19.8,30.15,ESE,120,0.0,5.0,60,0.00,,---,0.00,VWS V14.01,2013-02-25 05:45:00,
2013-02-25 00:50:00,32.0,19.7,30.15,NNW,345,1.0,5.0,60,0.00,,---,0.00,VWS V14.01,2013-02-25 05:50:00,
2013-02-25 00:55:00,32.0,19.7,30.15,NW,323,0.0,5.0,60,0.00,,---,0.00,VWS V14.01,2013-02-25 05:55:00,
2013-02-25 01:00:00,31.8,19.9,30.15,West,259,2.0,5.0,61,0.00,,---,0.00,VWS V14.01,2013-02-25 06:00:00,
2013-02-25 01:05:00,31.8,19.9,30.15,WNW,302,1.0,6.0,61,0.00,,---,0.00,VWS V14.01,2013-02-25 06:05:00,
2013-02-25 01:10:00,31.8,19.9,30.16,NNW,341,1.0,6.0,61,0.00,,---,0.00,VWS V14.01,2013-02-25 06:10:00,
2013-02-25 01:15:00,31.7,19.8,30.15,WNW,290,1.0,6.0,61,0.00,,---,0.00,VWS V14.01,2013-02-25 06:15:00,
2013-02-25 01:20:00,31.7,19.8,30.16,WNW,286,0.0,6.0,61,0.00,,---,0.00,VWS V14.01,2013-02-25 06:20:00,
2013-02-25 01:25:00,31.5,20.0,30.16,West,264,0.0,6.0,62,0.00,,---,0.00,VWS V14.01,2013-02-25 06:25:00,
2013-02-25 01:30:00,31.6,20.1,30.16,West,276,1.0,6.0,62,0.00,,---,0.00,VWS V14.01,2013-02-25 06:30:00,
2013-02-25 01:35:00,31.5,20.0,30.16,WNW,284,0.0,2.0,62,0.00,,---,0.00,VWS V14.01,2013-02-25 06:35:00,
2013-02-25 01:40:00,31.4,19.9,30.16,WNW,287,1.0,2.0,62,0.00,,---,0.00,VWS V14.01,2013-02-25 06:40:00,
2013-02-25 01:45:00,31.3,20.2,30.16,West,265,0.0,2.0,63,0.00,,---,0.00,VWS V14.01,2013-02-25 06:45:00,
2013-02-25 01:50:00,31.2,20.1,30.16,West,269,0.0,2.0,63,0.00,,---,0.00,VWS V14.01,2013-02-25 06:50:00,
2013-02-25 01:55:00,31.1,20.0,30.16,WSW,257,1.0,2.0,63,0.00,,---,0.00,VWS V14.01,2013-02-25 06:55:00,
2013-02-25 02:00:00,31.1,20.0,30.16,West,279,0.0,2.0,63,0.00,,---,0.00,VWS V14.01,2013-02-25 07:00:00,
2013-02-25 02:05:00,30.9,20.2,30.16,SW,228,0.0,1.0,64,0.00,,---,0.00,VWS V14.01,2013-02-25 07:05:00,
2013-02-25 02:10:00,30.8,20.1,30.16,West,274,0.0,1.0,64,0.00,,---,0.00,VWS V14.01,2013-02-25 07:10:00,
2013-02-25 02:15:00,30.6,20.2,30.16,WNW,284,0.0,1.0,65,0.00,,---,0.00,VWS V14.01,2013-02-25 07:15:00,
2013-02-25 02:20:00,30.5,20.1,30.16,WSW,258,0.0,1.0,65,0.00,,---,0.00,VWS V14.01,2013-02-25 07:20:00,
2013-02-25 02:25:00,30.4,20.4,30.16,West,259,0.0,1.0,66,0.00,,---,0.00,VWS V14.01,2013-02-25 07:25:00,
2013-02-25 02:30:00,30.1,20.1,30.16,North,356,0.0,1.0,66,0.00,,---,0.00,VWS V14.01,2013-02-25 07:30:00,
2013-02-25 02:35:00,29.9,19.9,30.16,NNE,13,0.0,0.0,66,0.00,,---,0.00,VWS V14.01,2013-02-25 07:35:00,
2013-02-25 02:40:00,29.7,20.1,30.16,North,5,0.0,0.0,67,0.00,,---,0.00,VWS V14.01,2013-02-25 07:40:00,
2013-02-25 02:45:00,29.8,20.2,30.16,North,3,0.0,0.0,67,0.00,,---,0.00,VWS V14.01,2013-02-25 07:45:00,
2013-02-25 02:50:00,29.8,20.2,30.16,WNW,283,0.0,0.0,67,0.00,,---,0.00,VWS V14.01,2013-02-25 07:50:00,
2013-02-25 02:55:00,29.8,20.5,30.16,WNW,283,0.0,0.0,68,0.00,,---,0.00,VWS V14.01,2013-02-25 07:55:00,
2013-02-25 03:00:00,29.6,20.4,30.16,WNW,285,0.0,0.0,68,0.00,,---,0.00,VWS V14.01,2013-02-25 08:00:00,
2013-02-25 03:05:00,29.4,20.2,30.16,WNW,285,0.0,0.0,68,0.00,,---,0.00,VWS V14.01,2013-02-25 08:05:00,
2013-02-25 03:10:00,29.4,20.5,30.16,NNW,346,0.0,0.0,69,0.00,,---,0.00,VWS V14.01,2013-02-25 08:10:00,
2013-02-25 03:15:00,29.5,20.6,30.16,NW,321,0.0,3.0,69,0.00,,---,0.00,VWS V14.01,2013-02-25 08:15:00,
2013-02-25 03:20:00,29.4,20.2,30.16,NW,322,0.0,3.0,68,0.00,,---,0.00,VWS V14.01,2013-02-25 08:20:00,
2013-02-25 03:25:00,29.3,20.4,30.16,NW,321,0.0,3.0,69,0.00,,---,0.00,VWS V14.01,2013-02-25 08:25:00,
2013-02-25 03:30:00,29.4,20.5,30.16,West,274,0.0,3.0,69,0.00,,---,0.00,VWS V14.01,2013-02-25 08:30:00,
2013-02-25 03:35:00,29.4,20.8,30.16,West,274,0.0,0.0,70,0.00,,---,0.00,VWS V14.01,2013-02-25 08:35:00,
2013-02-25 03:40:00,29.3,20.4,30.17,West,274,0.0,0.0,69,0.00,,---,0.00,VWS V14.01,2013-02-25 08:40:00,
2013-02-25 03:45:00,29.4,20.5,30.17,WNW,298,0.0,1.0,69,0.00,,---,0.00,VWS V14.01,2013-02-25 08:45:00,
2013-02-25 03:50:00,29.4,20.5,30.17,WNW,298,0.0,1.0,69,0.00,,---,0.00,VWS V14.01,2013-02-25 08:50:00,
2013-02-25 03:55:00,29.4,20.5,30.17,NNW,346,0.0,1.0,69,0.00,,---,0.00,VWS V14.01,2013-02-25 08:55:00,
2013-02-25 04:00:00,29.4,20.5,30.17,NNW,345,0.0,1.0,69,0.00,,---,0.00,VWS V14.01,2013-02-25 09:00:00,
2013-02-25 04:05:00,29.3,20.4,30.17,WSW,257,0.0,0.0,69,0.00,,---,0.00,VWS V14.01,2013-02-25 09:05:00,
2013-02-25 04:10:00,29.4,20.8,30.17,WNW,288,0.0,0.0,70,0.00,,---,0.00,VWS V14.01,2013-02-25 09:10:00,
2013-02-25 04:15:00,29.4,20.8,30.17,SW,219,0.0,0.0,70,0.00,,---,0.00,VWS V14.01,2013-02-25 09:15:00,
2013-02-25 04:20:00,29.4,20.5,30.17,NNE,28,0.0,0.0,69,0.00,,---,0.00,VWS V14.01,2013-02-25 09:20:00,
2013-02-25 04:25:00,29.3,20.7,30.17,NNE,25,0.0,0.0,70,0.00,,---,0.00,VWS V14.01,2013-02-25 09:25:00,
2013-02-25 04:30:00,29.2,20.6,30.17,West,274,0.0,0.0,70,0.00,,---,0.00,VWS V14.01,2013-02-25 09:30:00,
2013-02-25 04:35:00,29.2,20.6,30.17,SW,224,0.0,0.0,70,0.00,,---,0.00,VWS V14.01,2013-02-25 09:35:00,
2013-02-25 04:40:00,29.1,20.5,30.17,SW,222,0.0,0.0,70,0.00,,---,0.00,VWS V14.01,2013-02-25 09:40:00,
2013-02-25 04:45:00,29.1,20.9,30.17,SW,229,0.0,0.0,71,0.00,,---,0.00,VWS V14.01,2013-02-25 09:45:00,
2013-02-25 04:50:00,29.0,20.8,30.17,NNE,17,0.0,0.0,71,0.00,,---,0.00,VWS V14.01,2013-02-25 09:50:00,
2013-02-25 04:55:00,28.9,20.7,30.17,SE,142,0.0,0.0,71,0.00,,---,0.00,VWS V14.01,2013-02-25 09:55:00,
2013-02-25 05:00:00,28.8,20.6,30.17,SW,218,0.0,0.0,71,0.00,,---,0.00,VWS V14.01,2013-02-25 10:00:00,
2013-02-25 05:05:00,28.7,20.5,30.17,WSW,250,0.0,0.0,71,0.00,,---,0.00,VWS V14.01,2013-02-25 10:05:00,
2013-02-25 05:10:00,28.8,20.6,30.18,WSW,248,0.0,0.0,71,0.00,,---,0.00,VWS V14.01,2013-02-25 10:10:00,
2013-02-25 05:15:00,28.8,20.6,30.18,West,266,0.0,0.0,71,0.00,,---,0.00,VWS V14.01,2013-02-25 10:15:00,
2013-02-25 05:20:00,29.0,20.8,30.19,WSW,239,1.0,3.0,71,0.00,,---,0.00,VWS V14.01,2013-02-25 10:20:00,
2013-02-25 05:25:00,29.1,20.5,30.20,West,269,0.0,3.0,70,0.00,,---,0.00,VWS V14.01,2013-02-25 10:25:00,
2013-02-25 05:30:00,29.1,20.5,30.20,West,273,0.0,3.0,70,0.00,,---,0.00,VWS V14.01,2013-02-25 10:30:00,
2013-02-25 05:34:00,29.0,20.8,30.21,West,273,0.0,0.0,71,0.00,,---,0.00,VWS V14.01,2013-02-25 10:34:00,
2013-02-25 05:39:00,28.9,20.7,30.21,West,273,0.0,1.0,71,0.00,,---,0.00,VWS V14.01,2013-02-25 10:39:00,
2013-02-25 05:44:00,28.8,20.6,30.21,West,269,0.0,1.0,71,0.00,,---,0.00,VWS V14.01,2013-02-25 10:44:00,
2013-02-25 05:49:00,28.7,20.5,30.21,West,269,0.0,1.0,71,0.00,,---,0.00,VWS V14.01,2013-02-25 10:49:00,
2013-02-25 05:54:00,28.6,20.4,30.20,West,270,0.0,1.0,71,0.00,,---,0.00,VWS V14.01,2013-02-25 10:54:00,
2013-02-25 05:59:00,28.6,20.4,30.20,West,270,0.0,1.0,71,0.00,,---,0.00,VWS V14.01,2013-02-25 10:59:00,
2013-02-25 06:04:00,28.4,20.5,30.21,West,270,0.0,0.0,72,0.00,,---,0.00,VWS V14.01,2013-02-25 11:04:00,
2013-02-25 06:09:00,28.3,20.4,30.21,West,270,0.0,1.0,72,0.00,,---,0.00,VWS V14.01,2013-02-25 11:09:00,
2013-02-25 06:14:00,28.4,20.5,30.21,West,269,0.0,1.0,72,0.00,,---,0.00,VWS V14.01,2013-02-25 11:14:00,
2013-02-25 06:19:00,28.5,20.3,30.21,WSW,239,0.0,1.0,71,0.00,,---,0.00,VWS V14.01,2013-02-25 11:19:00,
2013-02-25 06:24:00,28.6,20.7,30.21,WSW,248,0.0,1.0,72,0.00,,---,0.00,VWS V14.01,2013-02-25 11:24:00,
2013-02-25 06:29:00,28.6,20.4,30.21,North,352,0.0,1.0,71,0.00,,---,0.00,VWS V14.01,2013-02-25 11:29:00,
2013-02-25 06:34:00,28.5,20.6,30.21,North,352,0.0,0.0,72,0.00,,---,0.00,VWS V14.01,2013-02-25 11:34:00,
2013-02-25 06:39:00,28.6,20.7,30.21,WNW,282,0.0,0.0,72,0.00,,---,0.00,VWS V14.01,2013-02-25 11:39:00,
2013-02-25 06:44:00,28.7,20.5,30.22,WNW,291,0.0,2.0,71,0.00,,---,0.00,VWS V14.01,2013-02-25 11:44:00,
2013-02-25 06:49:00,28.8,20.6,30.22,WNW,290,0.0,2.0,71,0.00,,---,0.00,VWS V14.01,2013-02-25 11:49:00,
2013-02-25 06:54:00,28.8,20.6,30.22,WNW,285,0.0,2.0,71,0.00,,---,0.00,VWS V14.01,2013-02-25 11:54:00,
2013-02-25 06:59:00,28.8,20.9,30.21,WNW,285,0.0,2.0,72,0.00,,---,0.00,VWS V14.01,2013-02-25 11:59:00,
2013-02-25 07:04:00,28.8,20.6,30.21,West,281,0.0,0.0,71,0.00,,---,0.00,VWS V14.01,2013-02-25 12:04:00,
2013-02-25 07:09:00,28.9,20.7,30.21,NW,320,0.0,0.0,71,0.00,,---,0.00,VWS V14.01,2013-02-25 12:09:00,
2013-02-25 07:14:00,29.0,20.8,30.21,NW,315,0.0,0.0,71,0.00,,---,0.00,VWS V14.01,2013-02-25 12:14:00,
2013-02-25 07:19:00,29.3,21.1,30.22,West,281,0.0,2.0,71,0.00,,---,0.00,VWS V14.01,2013-02-25 12:19:00,
2013-02-25 07:24:00,29.7,21.1,30.21,North,360,0.0,2.0,70,0.00,,---,0.00,VWS V14.01,2013-02-25 12:24:00,
2013-02-25 07:29:00,30.0,21.1,30.21,West,271,1.0,5.0,69,0.00,,---,0.00,VWS V14.01,2013-02-25 12:29:00,
2013-02-25 07:34:00,30.4,21.1,30.22,West,269,1.0,4.0,68,0.00,,---,0.00,VWS V14.01,2013-02-25 12:34:00,
2013-02-25 07:39:00,30.7,21.4,30.22,NNW,338,0.0,4.0,68,0.00,,---,0.00,VWS V14.01,2013-02-25 12:39:00,
2013-02-25 07:44:00,30.9,21.6,30.22,NW,312,2.0,4.0,68,0.00,,---,0.00,VWS V14.01,2013-02-25 12:44:00,
2013-02-25 07:49:00,31.1,21.4,30.22,WNW,288,1.0,4.0,67,0.00,,---,0.00,VWS V14.01,2013-02-25 12:49:00,
2013-02-25 07:54:00,31.4,21.7,30.22,WNW,300,0.0,4.0,67,0.00,,---,0.00,VWS V14.01,2013-02-25 12:54:00,
2013-02-25 07:59:00,31.7,22.0,30.22,ESE,105,0.0,4.0,67,0.00,,---,0.00,VWS V14.01,2013-02-25 12:59:00,
2013-02-25 08:05:00,32.0,21.9,30.22,ESE,122,0.0,0.0,66,0.00,,---,0.00,VWS V14.01,2013-02-25 13:05:00,
2013-02-25 08:10:00,32.3,21.9,30.22,West,280,0.0,2.0,65,0.00,,---,0.00,VWS V14.01,2013-02-25 13:10:00,
2013-02-25 08:15:00,32.7,21.9,30.22,NNW,333,1.0,4.0,64,0.00,,---,0.00,VWS V14.01,2013-02-25 13:15:00,
2013-02-25 08:20:00,33.0,22.2,30.22,WNW,295,2.0,5.0,64,0.00,,---,0.00,VWS V14.01,2013-02-25 13:20:00,
2013-02-25 08:25:00,33.4,22.2,30.22,WNW,298,1.0,5.0,63,0.00,,---,0.00,VWS V14.01,2013-02-25 13:25:00,
2013-02-25 08:30:00,33.8,22.2,30.23,West,274,1.0,5.0,62,0.00,,---,0.00,VWS V14.01,2013-02-25 13:30:00,
2013-02-25 08:35:00,34.2,22.2,30.24,NW,306,1.0,7.0,61,0.00,,---,0.00,VWS V14.01,2013-02-25 13:35:00,
2013-02-25 08:40:00,34.4,22.4,30.24,WSW,246,1.0,7.0,61,0.00,,---,0.00,VWS V14.01,2013-02-25 13:40:00,
2013-02-25 08:45:00,34.5,22.1,30.24,SW,233,0.0,7.0,60,0.00,,---,0.00,VWS V14.01,2013-02-25 13:45:00,
2013-02-25 08:50:00,34.6,22.2,30.24,ENE,58,3.0,7.0,60,0.00,,---,0.00,VWS V14.01,2013-02-25 13:50:00,
2013-02-25 08:55:00,34.7,22.2,30.24,East,94,1.0,7.0,60,0.00,,---,0.00,VWS V14.01,2013-02-25 13:55:00,
2013-02-25 09:00:00,34.9,22.4,30.24,WNW,300,3.0,7.0,60,0.00,,---,0.00,VWS V14.01,2013-02-25 14:00:00,
2013-02-25 09:05:00,35.1,22.6,30.23,NNW,341,2.0,4.0,60,0.00,,---,0.00,VWS V14.01,2013-02-25 14:05:00,
2013-02-25 09:10:00,35.6,22.7,30.23,NW,311,4.0,6.0,59,0.00,,---,0.00,VWS V14.01,2013-02-25 14:10:00,
2013-02-25 09:15:00,36.0,22.7,30.23,NNW,338,2.0,7.0,58,0.00,,---,0.00,VWS V14.01,2013-02-25 14:15:00,
2013-02-25 09:20:00,36.2,22.5,30.24,NE,53,0.0,7.0,57,0.00,,---,0.00,VWS V14.01,2013-02-25 14:20:00,
2013-02-25 09:25:00,36.5,22.7,30.25,NW,326,3.0,7.0,57,0.00,,---,0.00,VWS V14.01,2013-02-25 14:25:00,
2013-02-25 09:30:00,36.8,23.0,30.24,WNW,284,2.0,7.0,57,0.00,,---,0.00,VWS V14.01,2013-02-25 14:30:00,
2013-02-25 09:35:00,37.3,22.6,30.25,WNW,288,1.0,7.0,55,0.00,,---,0.00,VWS V14.01,2013-02-25 14:35:00,
2013-02-25 09:40:00,37.4,22.3,30.25,WNW,295,0.0,7.0,54,0.00,,---,0.00,VWS V14.01,2013-02-25 14:40:00,
2013-02-25 09:45:00,37.6,22.5,30.25,NNE,25,3.0,7.0,54,0.00,,---,0.00,VWS V14.01,2013-02-25 14:45:00,
2013-02-25 09:50:00,38.0,22.0,30.24,NW,315,1.0,7.0,52,0.00,,---,0.00,VWS V14.01,2013-02-25 14:50:00,
2013-02-25 09:55:00,38.3,22.7,30.23,NE,44,3.0,7.0,53,0.00,,---,0.00,VWS V14.01,2013-02-25 14:55:00,
2013-02-25 10:00:00,38.4,23.2,30.24,WNW,290,1.0,7.0,54,0.00,,---,0.00,VWS V14.01,2013-02-25 15:00:00,
2013-02-25 10:05:00,38.7,22.6,30.24,NNE,16,3.0,4.0,52,0.00,,---,0.00,VWS V14.01,2013-02-25 15:05:00,
2013-02-25 10:10:00,39.0,23.3,30.25,NNE,33,1.0,4.0,53,0.00,,---,0.00,VWS V14.01,2013-02-25 15:10:00,
2013-02-25 10:15:00,39.3,23.2,30.25,WNW,293,0.0,6.0,52,0.00,,---,0.00,VWS V14.01,2013-02-25 15:15:00,
2013-02-25 10:20:00,39.9,23.7,30.24,NNE,12,1.0,6.0,52,0.00,,---,0.00,VWS V14.01,2013-02-25 15:20:00,
2013-02-25 10:25:00,40.2,23.1,30.23,West,274,1.0,8.0,50,0.00,,---,0.00,VWS V14.01,2013-02-25 15:25:00,
2013-02-25 10:30:00,40.4,24.2,30.23,NNE,18,1.0,8.0,52,0.00,,---,0.00,VWS V14.01,2013-02-25 15:30:00,
2013-02-25 10:35:00,41.0,23.8,30.23,ENE,77,2.0,4.0,50,0.00,,---,0.00,VWS V14.01,2013-02-25 15:35:00,
2013-02-25 10:40:00,41.1,22.9,30.23,ENE,64,1.0,4.0,48,0.00,,---,0.00,VWS V14.01,2013-02-25 15:40:00,
2013-02-25 10:45:00,41.5,23.8,30.24,NE,48,1.0,4.0,49,0.00,,---,0.00,VWS V14.01,2013-02-25 15:45:00,
2013-02-25 10:50:00,41.7,23.5,30.24,WSW,256,1.0,4.0,48,0.00,,---,0.00,VWS V14.01,2013-02-25 15:50:00,
2013-02-25 10:55:00,41.9,23.2,30.23,North,350,3.0,4.0,47,0.00,,---,0.00,VWS V14.01,2013-02-25 15:55:00,
2013-02-25 11:00:00,42.3,23.5,30.23,SSE,159,1.0,7.0,47,0.00,,---,0.00,VWS V14.01,2013-02-25 16:00:00,
2013-02-25 11:05:00,42.7,23.4,30.24,ESE,103,0.0,5.0,46,0.00,,---,0.00,VWS V14.01,2013-02-25 16:05:00,
2013-02-25 11:10:00,43.1,23.7,30.23,ENE,77,1.0,5.0,46,0.00,,---,0.00,VWS V14.01,2013-02-25 16:10:00,
2013-02-25 11:15:00,43.2,23.3,30.23,NNE,12,0.0,5.0,45,0.00,,---,0.00,VWS V14.01,2013-02-25 16:15:00,
2013-02-25 11:20:00,43.6,23.1,30.24,NNW,331,0.0,5.0,44,0.00,,---,0.00,VWS V14.01,2013-02-25 16:20:00,
2013-02-25 11:25:00,44.0,23.5,30.23,NNW,329,0.0,6.0,44,0.00,,---,0.00,VWS V14.01,2013-02-25 16:25:00,
2013-02-25 11:30:00,43.8,23.3,30.24,WNW,290,2.0,6.0,44,0.00,,---,0.00,VWS V14.01,2013-02-25 16:30:00,
2013-02-25 11:35:00,43.9,24.0,30.24,NNW,331,2.0,4.0,45,0.00,,---,0.00,VWS V14.01,2013-02-25 16:35:00,
2013-02-25 11:40:00,43.9,23.4,30.24,West,274,1.0,4.0,44,0.00,,---,0.00,VWS V14.01,2013-02-25 16:40:00,
2013-02-25 11:45:00,44.1,25.2,30.24,NNW,335,0.0,4.0,47,0.00,,---,0.00,VWS V14.01,2013-02-25 16:45:00,
2013-02-25 11:50:00,44.2,23.7,30.24,WNW,295,1.0,6.0,44,0.00,,---,0.00,VWS V14.01,2013-02-25 16:50:00,
2013-02-25 11:55:00,44.3,23.8,30.24,NNW,346,1.0,6.0,44,0.00,,---,0.00,VWS V14.01,2013-02-25 16:55:00,
2013-02-25 12:00:00,44.4,24.4,30.24,ENE,72,1.0,6.0,45,0.00,,---,0.00,VWS V14.01,2013-02-25 17:00:00,
2013-02-25 12:05:00,45.2,24.6,30.23,SSE,150,0.0,1.0,44,0.00,,---,0.00,VWS V14.01,2013-02-25 17:05:00,
2013-02-25 12:10:00,45.5,24.3,30.23,NNW,331,3.0,3.0,43,0.00,,---,0.00,VWS V14.01,2013-02-25 17:10:00,
2013-02-25 12:15:00,45.2,24.6,30.23,NW,321,0.0,4.0,44,0.00,,---,0.00,VWS V14.01,2013-02-25 17:15:00,
2013-02-25 12:20:00,45.6,25.0,30.23,NNW,328,0.0,4.0,44,0.00,,---,0.00,VWS V14.01,2013-02-25 17:20:00,
2013-02-25 12:25:00,45.3,23.6,30.23,SW,217,2.0,6.0,42,0.00,,---,0.00,VWS V14.01,2013-02-25 17:25:00,
2013-02-25 12:30:00,45.2,25.1,30.23,NNE,20,0.0,6.0,45,0.00,,---,0.00,VWS V14.01,2013-02-25 17:30:00,
2013-02-25 12:35:00,45.9,24.7,30.23,WSW,250,1.0,3.0,43,0.00,,---,0.00,VWS V14.01,2013-02-25 17:35:00,
2013-02-25 12:40:00,46.1,24.9,30.22,SE,133,2.0,3.0,43,0.00,,---,0.00,VWS V14.01,2013-02-25 17:40:00,
2013-02-25 12:45:00,46.2,26.0,30.22,ESE,106,1.0,3.0,45,0.00,,---,0.00,VWS V14.01,2013-02-25 17:45:00,
2013-02-25 12:50:00,46.9,26.1,30.22,East,84,0.0,3.0,44,0.00,,---,0.00,VWS V14.01,2013-02-25 17:50:00,
2013-02-25 12:55:00,47.1,24.0,30.22,NW,315,0.0,3.0,40,0.00,,---,0.00,VWS V14.01,2013-02-25 17:55:00,
2013-02-25 13:00:00,46.8,24.4,30.22,North,4,1.0,3.0,41,0.00,,---,0.00,VWS V14.01,2013-02-25 18:00:00,
2013-02-25 13:05:00,46.6,24.2,30.22,NE,40,0.0,4.0,41,0.00,,---,0.00,VWS V14.01,2013-02-25 18:05:00,
2013-02-25 13:10:00,46.6,25.3,30.22,SE,126,0.0,4.0,43,0.00,,---,0.00,VWS V14.01,2013-02-25 18:10:00,
2013-02-25 13:15:00,46.5,24.1,30.22,NW,316,1.0,4.0,41,0.00,,---,0.00,VWS V14.01,2013-02-25 18:15:00,
2013-02-25 13:20:00,46.1,24.3,30.22,SE,128,1.0,4.0,42,0.00,,---,0.00,VWS V14.01,2013-02-25 18:20:00,
2013-02-25 13:25:00,46.4,25.1,30.22,SE,125,1.0,4.0,43,0.00,,---,0.00,VWS V14.01,2013-02-25 18:25:00,
2013-02-25 13:30:00,45.9,23.5,30.22,WSW,245,0.0,4.0,41,0.00,,---,0.00,VWS V14.01,2013-02-25 18:30:00,
2013-02-25 13:35:00,46.3,25.6,30.22,SW,232,0.0,1.0,44,0.00,,---,0.00,VWS V14.01,2013-02-25 18:35:00,
2013-02-25 13:40:00,47.3,26.0,30.22,ESE,113,0.0,2.0,43,0.00,,---,0.00,VWS V14.01,2013-02-25 18:40:00,
2013-02-25 13:45:00,47.7,25.2,30.21,NNW,328,3.0,4.0,41,0.00,,---,0.00,VWS V14.01,2013-02-25 18:45:00,
2013-02-25 13:50:00,47.6,25.1,30.21,East,85,0.0,4.0,41,0.00,,---,0.00,VWS V14.01,2013-02-25 18:50:00,
2013-02-25 13:55:00,47.7,25.2,30.21,NW,319,1.0,4.0,41,0.00,,---,0.00,VWS V14.01,2013-02-25 18:55:00,
2013-02-25 14:00:00,47.2,24.1,30.20,ENE,77,1.0,4.0,40,0.00,,---,0.00,VWS V14.01,2013-02-25 19:00:00,
2013-02-25 14:05:00,46.9,23.9,30.20,SE,139,0.0,1.0,40,0.00,,---,0.00,VWS V14.01,2013-02-25 19:05:00,
2013-02-25 14:10:00,47.1,24.0,30.20,SW,219,2.0,2.0,40,0.00,,---,0.00,VWS V14.01,2013-02-25 19:10:00,
2013-02-25 14:15:00,47.1,24.0,30.19,NW,323,2.0,3.0,40,0.00,,---,0.00,VWS V14.01,2013-02-25 19:15:00,
2013-02-25 14:20:00,46.9,24.5,30.19,SW,215,1.0,3.0,41,0.00,,---,0.00,VWS V14.01,2013-02-25 19:20:00,
2013-02-25 14:25:00,46.8,24.4,30.20,SW,219,0.0,3.0,41,0.00,,---,0.00,VWS V14.01,2013-02-25 19:25:00,
2013-02-25 14:30:00,46.9,24.5,30.20,WSW,243,0.0,4.0,41,0.00,,---,0.00,VWS V14.01,2013-02-25 19:30:00,
2013-02-25 14:35:00,47.0,24.0,30.19,WSW,255,1.0,4.0,40,0.00,,---,0.00,VWS V14.01,2013-02-25 19:35:00,
2013-02-25 14:40:00,46.7,24.3,30.19,NW,308,1.0,5.0,41,0.00,,---,0.00,VWS V14.01,2013-02-25 19:40:00,
2013-02-25 14:45:00,46.7,24.3,30.19,NNW,335,1.0,5.0,41,0.00,,---,0.00,VWS V14.01,2013-02-25 19:45:00,
2013-02-25 14:50:00,46.5,23.5,30.19,WNW,292,0.0,5.0,40,0.00,,---,0.00,VWS V14.01,2013-02-25 19:50:00,
2013-02-25 14:55:00,46.8,24.9,30.19,NW,315,0.0,5.0,42,0.00,,---,0.00,VWS V14.01,2013-02-25 19:55:00,
2013-02-25 15:00:00,47.2,25.3,30.19,North,350,0.0,5.0,42,0.00,,---,0.00,VWS V14.01,2013-02-25 20:00:00,
2013-02-25 15:05:00,47.7,24.6,30.19,West,266,1.0,2.0,40,0.00,,---,0.00,VWS V14.01,2013-02-25 20:05:00,
2013-02-25 15:10:00,47.4,24.3,30.19,WNW,285,1.0,3.0,40,0.00,,---,0.00,VWS V14.01,2013-02-25 20:10:00,
2013-02-25 15:15:00,47.3,24.2,30.18,SSW,205,1.0,3.0,40,0.00,,---,0.00,VWS V14.01,2013-02-25 20:15:00,
2013-02-25 15:20:00,47.7,25.2,30.18,West,278,0.0,3.0,41,0.00,,---,0.00,VWS V14.01,2013-02-25 20:20:00,
2013-02-25 15:25:00,47.9,24.1,30.18,NNW,341,0.0,3.0,39,0.00,,---,0.00,VWS V14.01,2013-02-25 20:25:00,
2013-02-25 15:30:00,48.1,25.5,30.18,SSW,194,0.0,3.0,41,0.00,,---,0.00,VWS V14.01,2013-02-25 20:30:00,
2013-02-25 15:35:00,48.4,25.2,30.18,South,186,0.0,1.0,40,0.00,,---,0.00,VWS V14.01,2013-02-25 20:35:00,
2013-02-25 15:40:00,48.5,25.3,30.19,SSE,152,2.0,4.0,40,0.00,,---,0.00,VWS V14.01,2013-02-25 20:40:00,
2013-02-25 15:45:00,48.1,24.9,30.18,West,269,0.0,4.0,40,0.00,,---,0.00,VWS V14.01,2013-02-25 20:45:00,
2013-02-25 15:50:00,48.3,25.1,30.18,SE,128,0.0,4.0,40,0.00,,---,0.00,VWS V14.01,2013-02-25 20:50:00,
2013-02-25 15:55:00,48.5,25.9,30.19,SE,141,1.0,4.0,41,0.00,,---,0.00,VWS V14.01,2013-02-25 20:55:00,
2013-02-25 16:00:00,48.4,25.8,30.19,SE,131,0.0,4.0,41,0.00,,---,0.00,VWS V14.01,2013-02-25 21:00:00,
2013-02-25 16:05:00,48.3,25.1,30.19,SE,139,1.0,2.0,40,0.00,,---,0.00,VWS V14.01,2013-02-25 21:05:00,
2013-02-25 16:10:00,48.6,25.4,30.19,SE,139,0.0,2.0,40,0.00,,---,0.00,VWS V14.01,2013-02-25 21:10:00,
2013-02-25 16:15:00,49.1,25.2,30.19,SE,125,0.0,2.0,39,0.00,,---,0.00,VWS V14.01,2013-02-25 21:15:00,
2013-02-25 16:20:00,49.6,25.0,30.19,NNW,340,0.0,2.0,38,0.00,,---,0.00,VWS V14.01,2013-02-25 21:20:00,
2013-02-25 16:25:00,49.2,24.7,30.19,SSE,158,0.0,3.0,38,0.00,,---,0.00,VWS V14.01,2013-02-25 21:25:00,
2013-02-25 16:30:00,49.2,24.7,30.19,North,1,1.0,4.0,38,0.00,,---,0.00,VWS V14.01,2013-02-25 21:30:00,
2013-02-25 16:35:00,49.0,24.5,30.20,West,273,0.0,2.0,38,0.00,,---,0.00,VWS V14.01,2013-02-25 21:35:00,
2013-02-25 16:40:00,49.2,24.7,30.20,NW,311,0.0,2.0,38,0.00,,---,0.00,VWS V14.01,2013-02-25 21:40:00,
2013-02-25 16:45:00,49.5,25.0,30.20,SW,232,0.0,2.0,38,0.00,,---,0.00,VWS V14.01,2013-02-25 21:45:00,
2013-02-25 16:50:00,49.7,25.1,30.20,WSW,250,0.0,2.0,38,0.00,,---,0.00,VWS V14.01,2013-02-25 21:50:00,
2013-02-25 16:55:00,49.6,25.0,30.20,SSW,205,1.0,2.0,38,0.00,,---,0.00,VWS V14.01,2013-02-25 21:55:00,
2013-02-25 17:00:00,48.8,25.6,30.20,SE,131,0.0,2.0,40,0.00,,---,0.00,VWS V14.01,2013-02-25 22:00:00,
2013-02-25 17:05:00,48.7,25.5,30.20,SE,133,0.0,0.0,40,0.00,,---,0.00,VWS V14.01,2013-02-25 22:05:00,
2013-02-25 17:10:00,48.6,25.4,30.19,SE,133,0.0,0.0,40,0.00,,---,0.00,VWS V14.01,2013-02-25 22:10:00,
2013-02-25 17:15:00,48.3,25.1,30.20,SE,133,0.0,1.0,40,0.00,,---,0.00,VWS V14.01,2013-02-25 22:15:00,
2013-02-25 17:20:00,47.4,24.9,30.20,SE,128,1.0,1.0,41,0.00,,---,0.00,VWS V14.01,2013-02-25 22:20:00,
2013-02-25 17:25:00,46.6,24.8,30.20,ESE,118,0.0,1.0,42,0.00,,---,0.00,VWS V14.01,2013-02-25 22:25:00,
2013-02-25 17:30:00,46.1,24.3,30.20,ESE,118,0.0,1.0,42,0.00,,---,0.00,VWS V14.01,2013-02-25 22:30:00,
2013-02-25 17:35:00,45.7,24.5,30.20,ESE,118,0.0,0.0,43,0.00,,---,0.00,VWS V14.01,2013-02-25 22:35:00,
2013-02-25 17:40:00,45.3,24.7,30.20,ESE,119,0.0,0.0,44,0.00,,---,0.00,VWS V14.01,2013-02-25 22:40:00,
2013-02-25 17:45:00,44.8,24.2,30.20,South,174,0.0,0.0,44,0.00,,---,0.00,VWS V14.01,2013-02-25 22:45:00,
2013-02-25 17:50:00,44.5,24.5,30.20,South,174,0.0,0.0,45,0.00,,---,0.00,VWS V14.01,2013-02-25 22:50:00,
2013-02-25 17:55:00,44.1,24.7,30.20,South,174,0.0,0.0,46,0.00,,---,0.00,VWS V14.01,2013-02-25 22:55:00,
2013-02-25 18:00:00,43.6,24.2,30.20,South,174,0.0,0.0,46,0.00,,---,0.00,VWS V14.01,2013-02-25 23:00:00,
2013-02-25 18:05:00,43.2,24.4,30.20,South,175,0.0,0.0,47,0.00,,---,0.00,VWS V14.01,2013-02-25 23:05:00,
2013-02-25 18:10:00,42.7,23.9,30.20,South,174,0.0,0.0,47,0.00,,---,0.00,VWS V14.01,2013-02-25 23:10:00,
2013-02-25 18:15:00,42.3,24.0,30.20,South,174,0.0,0.0,48,0.00,,---,0.00,VWS V14.01,2013-02-25 23:15:00,
2013-02-25 18:20:00,41.8,24.1,30.20,South,174,0.0,0.0,49,0.00,,---,0.00,VWS V14.01,2013-02-25 23:20:00,
2013-02-25 18:25:00,41.6,24.4,30.20,South,174,0.0,0.0,50,0.00,,---,0.00,VWS V14.01,2013-02-25 23:25:00,
2013-02-25 18:30:00,41.5,24.3,30.20,South,174,0.0,0.0,50,0.00,,---,0.00,VWS V14.01,2013-02-25 23:30:00,
2013-02-25 18:35:00,41.3,24.5,30.21,South,174,0.0,0.0,51,0.00,,---,0.00,VWS V14.01,2013-02-25 23:35:00,
2013-02-25 18:40:00,41.2,24.5,30.22,South,175,0.0,0.0,51,0.00,,---,0.00,VWS V14.01,2013-02-25 23:40:00,
2013-02-25 18:45:00,41.1,24.8,30.22,SE,144,0.0,0.0,52,0.00,,---,0.00,VWS V14.01,2013-02-25 23:45:00,
2013-02-25 18:50:00,41.2,25.8,30.22,ESE,123,0.0,2.0,54,0.00,,---,0.00,VWS V14.01,2013-02-25 23:50:00,
2013-02-25 18:55:00,41.3,25.9,30.23,ESE,114,0.0,2.0,54,0.00,,---,0.00,VWS V14.01,2013-02-25 23:55:00,
2013-02-25 19:00:00,41.3,25.9,30.23,SE,136,0.0,2.0,54,0.00,,---,0.00,VWS V14.01,2013-02-26 00:00:00,
2013-02-25 19:05:00,41.1,26.2,30.23,SE,135,0.0,0.0,55,0.00,,---,0.00,VWS V14.01,2013-02-26 00:05:00,
2013-02-25 19:10:00,40.9,26.0,30.23,SSE,153,0.0,1.0,55,0.00,,---,0.00,VWS V14.01,2013-02-26 00:10:00,
2013-02-25 19:15:00,40.7,26.2,30.24,SSE,150,0.0,1.0,56,0.00,,---,0.00,VWS V14.01,2013-02-26 00:15:00,
2013-02-25 19:20:00,40.6,26.1,30.24,SSE,152,0.0,2.0,56,0.00,,---,0.00,VWS V14.01,2013-02-26 00:20:00,
2013-02-25 19:25:00,40.4,26.0,30.24,SE,129,0.0,2.0,56,0.00,,---,0.00,VWS V14.01,2013-02-26 00:25:00,
2013-02-25 19:30:00,40.3,25.9,30.24,SE,139,0.0,2.0,56,0.00,,---,0.00,VWS V14.01,2013-02-26 00:30:00,
2013-02-25 19:35:00,40.2,25.8,30.24,SE,138,0.0,0.0,56,0.00,,---,0.00,VWS V14.01,2013-02-26 00:35:00,
2013-02-25 19:39:00,39.9,25.9,30.24,SE,138,0.0,0.0,57,0.00,,---,0.00,VWS V14.01,2013-02-26 00:39:00,
2013-02-25 19:44:00,39.6,25.6,30.24,SE,141,0.0,0.0,57,0.00,,---,0.00,VWS V14.01,2013-02-26 00:44:00,
2013-02-25 19:49:00,39.3,25.8,30.25,SE,141,0.0,0.0,58,0.00,,---,0.00,VWS V14.01,2013-02-26 00:49:00,
2013-02-25 19:54:00,39.2,25.7,30.24,SE,136,0.0,1.0,58,0.00,,---,0.00,VWS V14.01,2013-02-26 00:54:00,
2013-02-25 19:59:00,39.0,25.5,30.24,SE,136,0.0,1.0,58,0.00,,---,0.00,VWS V14.01,2013-02-26 00:59:00,
2013-02-25 20:04:00,38.9,25.4,30.24,SE,139,1.0,1.0,58,0.00,,---,0.00,VWS V14.01,2013-02-26 01:04:00,
2013-02-25 20:09:00,38.8,25.3,30.24,SE,139,0.0,1.0,58,0.00,,---,0.00,VWS V14.01,2013-02-26 01:09:00,
2013-02-25 20:14:00,38.8,25.3,30.24,SE,138,0.0,1.0,58,0.00,,---,0.00,VWS V14.01,2013-02-26 01:14:00,
2013-02-25 20:19:00,38.7,25.6,30.24,SE,138,0.0,1.0,59,0.00,,---,0.00,VWS V14.01,2013-02-26 01:19:00,
2013-02-25 20:24:00,38.5,25.4,30.24,SE,138,0.0,1.0,59,0.00,,---,0.00,VWS V14.01,2013-02-26 01:24:00,
2013-02-25 20:29:00,38.3,25.2,30.24,SE,138,0.0,1.0,59,0.00,,---,0.00,VWS V14.01,2013-02-26 01:29:00,
2013-02-25 20:34:00,38.1,25.1,30.25,SE,139,0.0,0.0,59,0.00,,---,0.00,VWS V14.01,2013-02-26 01:34:00,
2013-02-25 20:39:00,37.7,25.5,30.25,SE,138,0.0,0.0,61,0.00,,---,0.00,VWS V14.01,2013-02-26 01:39:00,
2013-02-25 20:44:00,37.3,25.5,30.25,SE,138,0.0,0.0,62,0.00,,---,0.00,VWS V14.01,2013-02-26 01:44:00,
2013-02-25 20:49:00,37.1,25.3,30.25,SE,138,0.0,0.0,62,0.00,,---,0.00,VWS V14.01,2013-02-26 01:49:00,
2013-02-25 20:54:00,37.1,25.7,30.25,SE,138,0.0,0.0,63,0.00,,---,0.00,VWS V14.01,2013-02-26 01:54:00,
2013-02-25 20:59:00,36.9,25.5,30.25,SE,138,0.0,0.0,63,0.00,,---,0.00,VWS V14.01,2013-02-26 01:59:00,
2013-02-25 21:04:00,36.8,25.4,30.24,SE,138,0.0,0.0,63,0.00,,---,0.00,VWS V14.01,2013-02-26 02:04:00,
2013-02-25 21:09:00,36.6,25.2,30.25,SE,139,0.0,0.0,63,0.00,,---,0.00,VWS V14.01,2013-02-26 02:09:00,
2013-02-25 21:14:00,36.4,25.4,30.24,SE,139,0.0,0.0,64,0.00,,---,0.00,VWS V14.01,2013-02-26 02:14:00,
2013-02-25 21:19:00,36.1,25.1,30.24,SE,139,0.0,0.0,64,0.00,,---,0.00,VWS V14.01,2013-02-26 02:19:00,
2013-02-25 21:24:00,36.0,25.4,30.24,SE,138,0.0,0.0,65,0.00,,---,0.00,VWS V14.01,2013-02-26 02:24:00,
2013-02-25 21:29:00,35.7,25.1,30.24,SE,138,0.0,0.0,65,0.00,,---,0.00,VWS V14.01,2013-02-26 02:29:00,
2013-02-25 21:34:00,35.4,25.5,30.24,SE,139,0.0,0.0,67,0.00,,---,0.00,VWS V14.01,2013-02-26 02:34:00,
2013-02-25 21:39:00,35.2,25.0,30.24,SE,139,0.0,0.0,66,0.00,,---,0.00,VWS V14.01,2013-02-26 02:39:00,
2013-02-25 21:44:00,35.1,25.3,30.24,SE,138,0.0,0.0,67,0.00,,---,0.00,VWS V14.01,2013-02-26 02:44:00,
2013-02-25 21:49:00,35.1,24.9,30.24,SE,139,0.0,0.0,66,0.00,,---,0.00,VWS V14.01,2013-02-26 02:49:00,
2013-02-25 21:54:00,35.1,25.3,30.24,SE,138,0.0,0.0,67,0.00,,---,0.00,VWS V14.01,2013-02-26 02:54:00,
2013-02-25 21:59:00,35.1,25.3,30.24,SE,139,0.0,0.0,67,0.00,,---,0.00,VWS V14.01,2013-02-26 02:59:00,
2013-02-25 22:04:00,35.0,25.5,30.24,SE,145,0.0,1.0,68,0.00,,---,0.00,VWS V14.01,2013-02-26 03:04:00,
2013-02-25 22:09:00,34.9,25.8,30.24,SE,145,0.0,1.0,69,0.00,,---,0.00,VWS V14.01,2013-02-26 03:09:00,
2013-02-25 22:14:00,34.7,25.6,30.24,SE,145,0.0,1.0,69,0.00,,---,0.00,VWS V14.01,2013-02-26 03:14:00,
2013-02-25 22:19:00,34.8,25.7,30.24,SE,145,0.0,1.0,69,0.00,,---,0.00,VWS V14.01,2013-02-26 03:19:00,
2013-02-25 22:24:00,34.7,25.9,30.24,WSW,248,0.0,1.0,70,0.00,,---,0.00,VWS V14.01,2013-02-26 03:24:00,
2013-02-25 22:29:00,34.6,26.2,30.24,WSW,248,0.0,1.0,71,0.00,,---,0.00,VWS V14.01,2013-02-26 03:29:00,
2013-02-25 22:34:00,34.4,26.0,30.24,WSW,248,0.0,0.0,71,0.00,,---,0.00,VWS V14.01,2013-02-26 03:34:00,
2013-02-25 22:39:00,34.2,25.8,30.24,WSW,248,0.0,0.0,71,0.00,,---,0.00,VWS V14.01,2013-02-26 03:39:00,
2013-02-25 22:44:00,34.1,26.0,30.24,WSW,248,0.0,0.0,72,0.00,,---,0.00,VWS V14.01,2013-02-26 03:44:00,
2013-02-25 22:49:00,34.0,25.9,30.23,WSW,248,0.0,0.0,72,0.00,,---,0.00,VWS V14.01,2013-02-26 03:49:00,
2013-02-25 22:54:00,33.6,25.5,30.22,WSW,248,0.0,0.0,72,0.00,,---,0.00,VWS V14.01,2013-02-26 03:54:00,
2013-02-25 22:59:00,33.5,25.8,30.22,WSW,248,0.0,0.0,73,0.00,,---,0.00,VWS V14.01,2013-02-26 03:59:00,
2013-02-25 23:04:00,33.4,25.7,30.22,WSW,248,0.0,0.0,73,0.00,,---,0.00,VWS V14.01,2013-02-26 04:04:00,
2013-02-25 23:09:00,33.2,25.8,30.23,WSW,248,0.0,0.0,74,0.00,,---,0.00,VWS V14.01,2013-02-26 04:09:00,
2013-02-25 23:14:00,33.1,26.0,30.24,WSW,248,0.0,0.0,75,0.00,,---,0.00,VWS V14.01,2013-02-26 04:14:00,
2013-02-25 23:19:00,32.9,25.9,30.24,WSW,248,0.0,0.0,75,0.00,,---,0.00,VWS V14.01,2013-02-26 04:19:00,
2013-02-25 23:24:00,32.7,25.7,30.24,WSW,248,0.0,0.0,75,0.00,,---,0.00,VWS V14.01,2013-02-26 04:24:00,
2013-02-25 23:29:00,32.6,25.9,30.23,WSW,248,0.0,0.0,76,0.00,,---,0.00,VWS V14.01,2013-02-26 04:29:00,
2013-02-25 23:34:00,32.4,25.7,30.24,WSW,248,0.0,0.0,76,0.00,,---,0.00,VWS V14.01,2013-02-26 04:34:00,
2013-02-25 23:39:00,32.3,25.6,30.24,WSW,248,0.0,0.0,76,0.00,,---,0.00,VWS V14.01,2013-02-26 04:39:00,
2013-02-25 23:44:00,32.4,25.7,30.24,WSW,248,0.0,0.0,76,0.00,,---,0.00,VWS V14.01,2013-02-26 04:44:00,
2013-02-25 23:49:00,32.4,25.4,30.24,WSW,248,0.0,0.0,75,0.00,,---,0.00,VWS V14.01,2013-02-26 04:49:00,
2013-02-25 23:54:00,32.4,25.4,30.24,WSW,248,0.0,0.0,75,0.00,,---,0.00,VWS V14.01,2013-02-26 04:54:00,
2013-02-25 23:59:00,32.2,25.5,30.24,WSW,248,0.0,0.0,76,0.00,,---,0.00,VWS V14.01,2013-02-26 04:59:00,